TimeCST,TemperatureF,Dew PointF,Humidity,Sea Level PressureIn,VisibilityMPH,Wind Direction,Wind SpeedMPH,Gust SpeedMPH,PrecipitationIn,Events,Conditions,WindDirDegrees,DateUTC
12:35 AM,59.0,48.2,67,29.84,10.0,South,8.1,16.1,N/A,,Scattered Clouds,190,2013-03-05 06:35:00
12:55 AM,59.0,48.2,67,29.84,9.0,South,8.1,17.3,N/A,,Overcast,190,2013-03-05 06:55:00
1:15 AM,59.0,48.2,67,29.85,10.0,South,6.9,-,N/A,,Overcast,190,2013-03-05 07:15:00
1:35 AM,59.0,48.2,67,29.85,10.0,South,5.8,-,N/A,,Overcast,190,2013-03-05 07:35:00
1:55 AM,59.0,48.2,67,29.85,10.0,South,4.6,-,N/A,,Overcast,180,2013-03-05 07:55:00
2:15 AM,57.2,48.2,72,29.84,10.0,South,4.6,-,N/A,,Overcast,180,2013-03-05 08:15:00
2:35 AM,57.2,48.2,72,29.84,10.0,South,6.9,-,N/A,,Overcast,180,2013-03-05 08:35:00
2:55 AM,57.2,48.2,72,29.84,10.0,South,4.6,-,N/A,,Overcast,190,2013-03-05 08:55:00
3:15 AM,57.2,50.0,77,29.84,9.0,South,3.5,-,N/A,,Overcast,180,2013-03-05 09:15:00
3:35 AM,57.2,50.0,77,29.84,9.0,South,4.6,-,N/A,,Overcast,180,2013-03-05 09:35:00
3:55 AM,57.2,50.0,77,29.84,9.0,South,5.8,-,N/A,,Overcast,190,2013-03-05 09:55:00
4:15 AM,57.2,50.0,77,29.85,9.0,South,4.6,-,N/A,,Overcast,190,2013-03-05 10:15:00
4:35 AM,57.2,50.0,77,29.85,9.0,South,3.5,-,N/A,,Overcast,190,2013-03-05 10:35:00
4:55 AM,57.2,51.8,82,29.86,5.0,South,4.6,-,N/A,Rain,Light Rain,190,2013-03-05 10:55:00
5:15 AM,55.4,53.6,94,29.85,3.0,South,3.5,-,N/A,Rain,Light Rain,190,2013-03-05 11:15:00
5:35 AM,55.4,53.6,94,29.85,6.0,South,4.6,-,N/A,Rain,Light Rain,170,2013-03-05 11:35:00
6:15 AM,55.4,53.6,94,29.83,4.0,South,4.6,-,N/A,Thunderstorm,Overcast,190,2013-03-05 12:15:00
6:35 AM,55.4,53.6,94,29.82,2.0,SSW,6.9,-,0.03,Rain-Thunderstorm,Light Rain,210,2013-03-05 12:35:00
6:55 AM,55.4,55.4,100,29.82,1.5,SSW,9.2,-,0.08,Rain-Thunderstorm,Light Rain,210,2013-03-05 12:55:00
7:15 AM,55.4,55.4,100,29.82,3.0,SSW,8.1,-,N/A,Rain-Thunderstorm,Light Rain,210,2013-03-05 13:15:00
7:35 AM,57.2,55.4,94,29.84,0.5,WSW,9.2,17.3,0.16,Rain-Thunderstorm,Light Thunderstorms and Rain,240,2013-03-05 13:35:00
7:55 AM,57.2,55.4,94,29.84,5.0,West,5.8,-,0.16,Rain-Thunderstorm,Light Rain,270,2013-03-05 13:55:00
8:35 AM,57.2,55.4,94,29.84,5.0,West,12.7,17.3,N/A,Rain,Light Rain,270,2013-03-05 14:35:00
8:55 AM,53.6,53.6,100,29.86,1.5,NW,16.1,29.9,0.01,Rain,Light Rain,320,2013-03-05 14:55:00
9:15 AM,48.2,48.2,100,29.88,1.8,NNW,16.1,28.8,N/A,Rain-Thunderstorm,Light Rain,330,2013-03-05 15:15:00
9:55 AM,44.6,41.0,87,29.95,3.0,NNW,21.9,32.2,0.01,Rain,Light Rain,330,2013-03-05 15:55:00
10:15 AM,41.0,39.2,93,29.94,3.0,NNW,16.1,29.9,N/A,Rain-Thunderstorm,Light Rain,330,2013-03-05 16:15:00
10:35 AM,41.0,39.2,93,29.95,7.0,NNW,16.1,28.8,N/A,Rain,Light Rain,330,2013-03-05 16:35:00
10:55 AM,41.0,39.2,93,29.97,7.0,NW,16.1,21.9,N/A,,Overcast,320,2013-03-05 16:55:00
11:15 AM,39.2,37.4,93,29.98,8.0,NW,13.8,25.3,N/A,,Overcast,320,2013-03-05 17:15:00
11:35 AM,39.2,37.4,93,30.00,8.0,NW,13.8,24.2,N/A,,Overcast,320,2013-03-05 17:35:00
11:55 AM,41.0,37.4,87,30.01,8.0,NNW,17.3,29.9,N/A,,Overcast,340,2013-03-05 17:55:00
12:15 PM,41.0,35.6,81,30.03,8.0,NNW,19.6,29.9,N/A,,Overcast,340,2013-03-05 18:15:00
12:55 PM,42.8,33.8,70,30.03,9.0,NNW,16.1,21.9,N/A,,Overcast,330,2013-03-05 18:55:00
1:15 PM,44.6,32.0,61,30.03,9.0,NNW,17.3,23.0,N/A,,Overcast,330,2013-03-05 19:15:00
1:35 PM,44.6,33.8,66,30.03,8.0,NW,11.5,19.6,N/A,,Overcast,320,2013-03-05 19:35:00
1:55 PM,44.6,32.0,61,30.04,9.0,NNW,10.4,21.9,N/A,,Overcast,330,2013-03-05 19:55:00
2:15 PM,44.6,32.0,61,30.05,9.0,NW,16.1,24.2,N/A,,Overcast,320,2013-03-05 20:15:00
2:35 PM,46.4,32.0,57,30.06,9.0,NNW,10.4,18.4,N/A,,Mostly Cloudy,330,2013-03-05 20:35:00
2:55 PM,46.4,32.0,57,30.06,9.0,NW,12.7,19.6,N/A,,Mostly Cloudy,320,2013-03-05 20:55:00
3:35 PM,46.4,32.0,57,30.07,9.0,NW,12.7,21.9,N/A,,Partly Cloudy,310,2013-03-05 21:35:00
3:55 PM,48.2,32.0,54,30.07,8.0,NW,12.7,19.6,N/A,,Clear,310,2013-03-05 21:55:00
4:15 PM,48.2,32.0,54,30.07,8.0,NW,16.1,21.9,N/A,,Clear,310,2013-03-05 22:15:00
4:35 PM,48.2,32.0,54,30.07,8.0,NNW,12.7,20.7,N/A,,Clear,330,2013-03-05 22:35:00
4:55 PM,48.2,32.0,54,30.07,8.0,NNW,8.1,-,N/A,,Clear,330,2013-03-05 22:55:00
5:15 PM,48.2,28.4,46,30.08,9.0,WNW,11.5,17.3,N/A,,Clear,300,2013-03-05 23:15:00
5:55 PM,46.4,30.2,53,30.10,9.0,NNW,10.4,-,N/A,,Clear,330,2013-03-05 23:55:00
6:15 PM,44.6,28.4,53,30.11,10.0,NNW,8.1,-,N/A,,Clear,340,2013-03-06 00:15:00
6:35 PM,44.6,24.8,46,30.12,10.0,NNW,10.4,-,N/A,,Clear,330,2013-03-06 00:35:00
6:55 PM,42.8,24.8,49,30.12,10.0,NNW,10.4,-,N/A,,Clear,330,2013-03-06 00:55:00
7:15 PM,42.8,23.0,46,30.13,10.0,NNW,8.1,16.1,N/A,,Clear,340,2013-03-06 01:15:00
7:35 PM,41.0,23.0,49,30.14,10.0,NNW,10.4,-,N/A,,Clear,330,2013-03-06 01:35:00
7:55 PM,41.0,23.0,49,30.14,10.0,NW,9.2,-,N/A,,Clear,320,2013-03-06 01:55:00
8:35 PM,41.0,21.2,45,30.15,10.0,NW,9.2,-,N/A,,Clear,310,2013-03-06 02:35:00
8:55 PM,39.2,23.0,52,30.15,10.0,NW,8.1,-,N/A,,Clear,310,2013-03-06 02:55:00
9:15 PM,39.2,23.0,52,30.16,10.0,NW,6.9,-,N/A,,Clear,310,2013-03-06 03:15:00
9:35 PM,39.2,23.0,52,30.17,10.0,NW,10.4,-,N/A,,Clear,320,2013-03-06 03:35:00
9:55 PM,39.2,23.0,52,30.17,10.0,NW,11.5,-,N/A,,Clear,320,2013-03-06 03:55:00
10:15 PM,39.2,23.0,52,30.18,10.0,NNW,9.2,-,N/A,,Clear,330,2013-03-06 04:15:00
10:35 PM,39.2,23.0,52,30.19,10.0,NNW,9.2,-,N/A,,Clear,330,2013-03-06 04:35:00
10:55 PM,39.2,21.2,49,30.19,10.0,NNW,13.8,21.9,N/A,,Clear,330,2013-03-06 04:55:00
11:15 PM,37.4,21.2,52,30.19,10.0,NNW,17.3,21.9,N/A,,Clear,330,2013-03-06 05:15:00
11:35 PM,37.4,21.2,52,30.19,10.0,NNW,15.0,20.7,N/A,,Clear,330,2013-03-06 05:35:00
11:55 PM,37.4,21.2,52,30.19,10.0,NNW,13.8,20.7,N/A,,Clear,330,2013-03-06 05:55:00